�N����,����,�~����,�C��,���x,�C��,����,���ϕ���,�ő�u�ԕ���,�ő厞����,���˗�,�I�_���x,�n�����x,�ő啗���N��,DTYPE
"18/09/14","00:10",0.2,21.5,95.4,1012.3,324.1,0.8,1.3,323.6,0.00,20.8,23.8,"00:00:24",1
"18/09/14","00:20",0.0,21.5,95.5,1012.3,314.6,0.2,0.9,327.2,0.00,20.8,23.8,"00:10:24",1
"18/09/14","00:30",0.0,21.4,95.5,1012.6,335.8,1.0,1.6,345.7,0.00,20.7,23.7,"00:28:24",1
"18/09/14","00:40",0.0,21.4,95.5,1012.3,300.0,0.6,1.2,343.6,0.00,20.7,23.6,"00:30:16",1
"18/09/14","00:50",0.0,21.3,95.6,1012.6,295.9,0.7,1.4,337.0,0.00,20.6,23.4,"00:41:04",1
"18/09/14","01:00",0.0,21.3,95.7,1012.6,306.8,0.6,1.2,238.3,0.00,20.6,23.6,"00:51:20",1
"18/09/14","01:10",0.0,21.4,95.7,1012.3,333.4,1.1,1.4,339.1,0.00,20.7,23.8,"01:01:20",1
"18/09/14","01:20",0.0,21.4,95.8,1011.9,340.5,1.0,1.7,338.3,0.00,20.7,23.5,"01:10:32",1
"18/09/14","01:30",0.0,21.4,95.9,1012.1,309.1,0.5,0.9,333.1,0.00,20.8,23.5,"01:26:32",1
"18/09/14","01:40",0.6,21.4,95.8,1012.3,316.7,0.8,1.1,312.4,0.00,20.7,23.7,"01:35:44",1
"18/09/14","01:50",0.4,21.3,95.8,1012.1,265.2,0.3,1.2,309.7,0.00,20.6,23.6,"01:41:28",1
"18/09/14","02:00",0.6,21.3,96.1,1012.3,292.1,0.5,0.9,311.3,0.00,20.7,23.7,"01:56:56",1
"18/09/14","02:10",0.0,21.3,96.0,1012.1,302.0,0.6,1.2,336.4,0.00,20.7,23.7,"02:08:24",1
"18/09/14","02:20",0.0,21.3,96.1,1012.3,278.8,0.5,1.0,325.6,0.00,20.7,23.7,"02:19:28",1
"18/09/14","02:30",0.2,21.2,96.1,1012.3,293.2,0.7,1.1,258.0,0.00,20.6,23.6,"02:26:32",1
"18/09/14","02:40",0.2,21.2,96.2,1012.1,288.7,0.6,1.1,326.2,0.00,20.6,23.6,"02:32:56",1
"18/09/14","02:50",0.4,21.1,96.2,1012.1,275.4,0.7,1.1,296.9,0.00,20.5,23.6,"02:43:28",1
"18/09/14","03:00",0.4,21.2,96.3,1012.1,288.7,0.6,1.6,317.9,0.00,20.6,23.6,"02:53:04",1
"18/09/14","03:10",0.4,21.2,96.3,1012.1,310.7,1.0,1.7,340.9,0.00,20.6,23.4,"03:09:36",1
"18/09/14","03:20",0.2,21.2,96.3,1012.1,315.5,1.0,1.7,319.9,0.00,20.6,23.7,"03:14:52",1
"18/09/14","03:30",0.2,21.2,96.5,1011.9,249.2,0.7,1.2,238.6,0.00,20.7,23.6,"03:27:36",1
"18/09/14","03:40",0.4,21.1,96.4,1011.9,271.7,0.8,1.4,296.7,0.00,20.5,23.7,"03:36:56",1
"18/09/14","03:50",0.6,21.1,96.5,1012.1,296.9,0.6,1.0,262.3,0.00,20.6,23.5,"03:40:32",1
"18/09/14","04:00",0.4,21.1,96.5,1012.1,267.8,0.5,0.9,257.9,0.00,20.6,23.5,"03:57:28",1
"18/09/14","04:10",0.6,21.0,96.5,1012.3,267.0,0.6,1.1,260.3,0.00,20.5,23.2,"04:06:48",1
"18/09/14","04:20",1.0,21.0,96.5,1012.3,266.9,0.7,1.1,261.5,0.00,20.5,23.6,"04:11:04",1
"18/09/14","04:30",0.8,21.0,96.6,1012.3,282.7,0.5,1.0,253.1,0.00,20.5,23.3,"04:23:52",1
"18/09/14","04:40",0.4,21.1,96.7,1012.1,308.5,0.6,1.2,309.7,0.00,20.6,23.1,"04:31:36",1
"18/09/14","04:50",0.2,21.1,96.7,1011.9,265.0,0.3,0.8,262.5,0.00,20.6,23.4,"04:44:16",1
"18/09/14","05:00",0.2,21.0,96.7,1012.1,299.0,0.6,1.6,330.8,0.00,20.5,23.2,"04:51:20",1
"18/09/14","05:10",0.0,20.9,96.7,1011.9,248.9,0.6,1.2,256.3,0.00,20.4,23.2,"05:02:56",1
"18/09/14","05:20",0.2,20.9,96.8,1011.6,294.2,0.3,0.8,305.7,0.00,20.4,23.2,"05:13:36",1
"18/09/14","05:30",0.0,21.0,96.9,1012.1,305.8,0.2,0.5,313.3,0.00,20.5,23.2,"05:29:36",1
"18/09/14","05:40",0.0,21.0,96.8,1012.1,297.7,0.2,0.8,319.9,0.00,20.5,23.4,"05:33:12",1
"18/09/14","05:50",0.0,21.0,96.9,1012.6,313.8,0.5,0.9,322.3,0.00,20.5,23.2,"05:44:16",1
"18/09/14","06:00",0.0,21.1,97.0,1012.3,247.6,0.1,0.6,302.0,0.00,20.6,23.3,"05:59:52",1
"18/09/14","06:10",0.0,21.1,96.9,1012.1,315.3,0.5,0.9,337.9,0.00,20.6,23.3,"06:06:00",1
"18/09/14","06:20",0.0,21.2,96.9,1012.3,312.4,0.2,0.8,311.6,0.00,20.7,23.1,"06:10:24",1
"18/09/14","06:30",0.2,21.2,96.9,1012.3,294.3,0.2,0.5,299.3,0.00,20.7,23.1,"06:24:48",1
"18/09/14","06:40",0.0,21.2,97.0,1012.3,283.0,0.2,1.0,312.7,0.00,20.7,23.1,"06:30:24",1
"18/09/14","06:50",0.0,21.2,96.9,1012.3,267.8,0.2,0.6,234.0,0.00,20.7,23.3,"06:40:56",1
"18/09/14","07:00",0.0,21.3,97.1,1011.9,307.3,0.5,1.0,336.2,0.00,20.9,23.3,"06:53:28",1
"18/09/14","07:10",0.0,21.4,97.0,1012.1,298.6,0.5,1.3,330.9,0.00,20.9,23.2,"07:00:02",1
"18/09/14","07:20",0.0,21.4,96.9,1012.3,297.0,0.7,1.4,320.4,0.00,20.9,23.2,"07:10:08",1
"18/09/14","07:30",0.0,21.3,97.0,1012.3,281.6,0.5,0.9,300.0,0.00,20.8,23.2,"07:24:40",1
"18/09/14","07:40",0.0,21.3,97.0,1012.1,261.1,0.5,0.9,243.6,0.00,20.8,23.2,"07:36:48",1
"18/09/14","07:50",0.0,21.4,96.9,1012.3,272.6,0.7,1.2,243.0,0.00,20.9,23.2,"07:47:04",1
"18/09/14","08:00",0.0,21.5,96.9,1012.3,320.8,0.6,1.2,322.6,0.01,21.0,23.2,"07:59:44",1
"18/09/14","08:10",0.0,21.4,97.0,1012.3,310.4,0.7,1.2,345.7,0.01,20.9,23.2,"08:03:04",1
"18/09/14","08:20",0.0,21.3,96.9,1012.6,300.3,0.8,1.4,328.0,0.01,20.8,23.2,"08:19:12",1
"18/09/14","08:30",0.0,21.6,97.1,1012.3,337.3,1.0,1.7,332.3,0.03,21.2,23.4,"08:25:04",1
"18/09/14","08:40",0.2,21.8,96.4,1012.8,300.0,0.2,1.0,344.7,0.04,21.2,23.4,"08:30:08",1
"18/09/14","08:50",0.0,21.6,96.4,1012.3,247.2,0.8,1.3,224.2,0.05,21.0,23.3,"08:49:20",1
"18/09/14","09:00",0.0,21.7,96.1,1012.6,236.0,0.8,1.4,234.4,0.07,21.1,23.3,"08:55:20",1
"18/09/14","09:10",0.0,21.9,96.2,1012.6,269.4,0.5,1.0,240.1,0.06,21.3,23.6,"09:02:40",1
"18/09/14","09:20",0.0,21.9,95.9,1012.6,298.3,0.6,1.1,316.0,0.07,21.3,23.4,"09:14:32",1
"18/09/14","09:30",0.0,22.1,95.7,1012.6,298.4,0.6,1.2,325.4,0.09,21.4,23.5,"09:21:44",1
"18/09/14","09:40",0.0,22.0,95.9,1012.3,250.8,0.5,1.1,212.7,0.10,21.4,23.5,"09:31:04",1
"18/09/14","09:50",0.0,22.6,95.3,1012.6,194.8,0.7,1.4,226.4,0.11,21.8,23.6,"09:42:40",1
"18/09/14","10:00",0.0,22.9,92.9,1012.6,185.1,0.8,1.7,161.4,0.13,21.7,23.6,"09:51:52",1
"18/09/14","10:10",0.0,23.0,91.5,1012.8,112.7,0.6,1.7,119.9,0.12,21.6,23.7,"10:08:40",1
"18/09/14","10:20",0.0,23.0,91.0,1012.6,171.2,0.7,1.7,180.1,0.12,21.5,23.8,"10:11:52",1
"18/09/14","10:30",0.0,23.0,90.5,1012.6,90.5,0.5,2.0,92.5,0.17,21.4,23.8,"10:26:56",1
"18/09/14","10:40",0.0,23.2,89.1,1012.6,145.5,0.6,1.3,82.0,0.18,21.3,23.9,"10:30:08",1
"18/09/14","10:50",0.0,22.8,89.0,1012.1,196.0,1.0,2.4,219.9,0.14,20.9,24.0,"10:47:44",1
"18/09/14","11:00",0.0,22.9,89.5,1012.1,230.6,0.7,1.7,234.5,0.10,21.1,24.1,"10:53:44",1
"18/09/14","11:10",0.0,23.2,88.8,1012.3,244.1,0.6,1.6,258.3,0.08,21.3,24.2,"11:05:52",1
"18/09/14","11:20",0.2,22.2,90.2,1012.1,222.8,1.2,2.2,236.2,0.08,20.6,23.9,"11:16:32",1
"18/09/14","11:30",0.2,22.3,92.5,1011.9,233.0,1.0,1.8,234.6,0.10,21.1,24.3,"11:28:56",1
"18/09/14","11:40",0.2,22.3,93.2,1011.9,218.0,1.1,1.9,216.1,0.13,21.2,24.1,"11:30:08",1
"18/09/14","11:50",0.2,22.6,93.7,1011.9,220.3,0.6,1.4,215.8,0.17,21.6,24.1,"11:46:32",1
"18/09/14","12:00",0.0,22.8,93.6,1011.4,254.6,0.5,2.0,220.6,0.21,21.8,24.2,"11:50:32",1
"18/09/14","12:10",0.0,22.8,93.0,1011.4,302.7,0.7,1.3,348.7,0.18,21.6,24.3,"12:06:32",1
"18/09/14","12:20",0.0,23.0,91.4,1011.9,342.2,0.7,2.0,338.7,0.20,21.6,24.4,"12:15:36",1
"18/09/14","12:30",0.0,23.7,89.6,1011.6,359.0,0.6,1.9,1.8,0.24,21.9,24.3,"12:29:44",1
"18/09/14","12:40",0.0,24.0,88.7,1011.4,355.6,1.0,2.4,344.9,0.25,22.1,24.5,"12:36:48",1
"18/09/14","12:50",0.0,24.0,86.9,1010.9,5.3,0.7,1.9,16.8,0.17,21.7,24.6,"12:41:44",1
"18/09/14","13:00",0.0,24.0,85.7,1011.2,14.8,1.1,2.6,21.6,0.11,21.5,24.5,"12:50:08",1
"18/09/14","13:10",0.0,24.4,84.1,1010.9,351.3,0.6,1.6,354.0,0.09,21.6,24.6,"13:06:08",1
"18/09/14","13:20",0.0,25.0,82.9,1011.2,27.8,0.7,1.8,63.1,0.11,21.9,24.7,"13:18:16",1
"18/09/14","13:30",0.0,24.2,84.3,1010.7,49.7,0.7,2.6,23.5,0.11,21.4,24.6,"13:24:48",1
"18/09/14","13:40",0.0,24.1,84.8,1010.7,42.2,0.6,1.6,106.9,0.13,21.4,24.7,"13:39:44",1
"18/09/14","13:50",0.0,24.5,82.7,1010.2,23.7,0.8,1.9,34.4,0.08,21.4,24.8,"13:49:44",1
"18/09/14","14:00",0.0,24.4,81.9,1010.7,84.6,1.0,2.1,78.9,0.09,21.1,24.8,"13:56:08",1
"18/09/14","14:10",0.0,24.1,83.2,1010.2,71.5,1.1,2.8,114.4,0.10,21.1,24.8,"14:06:08",1
"18/09/14","14:20",0.0,24.3,84.6,1010.4,91.8,0.6,1.4,114.3,0.10,21.6,24.7,"14:16:32",1
"18/09/14","14:30",0.2,24.0,85.0,1010.7,2.1,0.7,1.7,357.9,0.08,21.4,24.7,"14:28:08",1
"18/09/14","14:40",0.0,23.8,86.5,1010.7,358.9,0.6,1.6,339.4,0.05,21.5,24.9,"14:31:44",1
"18/09/14","14:50",0.0,23.7,87.5,1010.7,33.4,0.3,1.0,40.0,0.04,21.5,24.6,"14:40:48",1
"18/09/14","15:00",0.0,23.4,87.9,1010.7,0.9,0.6,1.7,15.8,0.03,21.3,24.6,"14:54:40",1
"18/09/14","15:10",0.6,23.3,88.1,1010.4,350.3,0.5,1.8,338.1,0.05,21.3,24.5,"15:05:04",1
"18/09/14","15:20",1.0,23.1,88.6,1010.4,21.4,0.5,1.2,122.8,0.08,21.2,24.7,"15:15:20",1
"18/09/14","15:30",0.6,23.0,89.7,1010.0,61.7,0.3,1.2,325.8,0.06,21.3,24.6,"15:21:36",1
"18/09/14","15:40",0.0,23.0,90.7,1010.2,133.6,0.2,0.9,141.3,0.05,21.4,24.5,"15:36:00",1
"18/09/14","15:50",0.2,22.8,90.4,1010.2,157.9,0.2,0.6,121.1,0.04,21.2,24.7,"15:40:56",1
"18/09/14","16:00",0.2,22.9,91.8,1010.2,273.9,0.2,0.8,302.1,0.03,21.5,24.4,"15:57:36",1
"18/09/14","16:10",0.0,22.6,92.1,1010.4,251.4,0.3,1.0,237.0,0.02,21.3,24.6,"16:01:36",1
"18/09/14","16:20",0.0,22.5,92.6,1010.4,269.4,0.3,0.6,302.3,0.01,21.3,24.5,"16:12:00",1
"18/09/14","16:30",0.0,22.6,92.6,1010.2,247.1,0.6,1.1,237.5,0.05,21.4,24.5,"16:27:20",1
"18/09/14","16:40",0.0,22.7,92.5,1010.9,234.1,0.7,1.3,236.8,0.03,21.5,24.6,"16:31:44",1
"18/09/14","16:50",0.0,22.6,92.2,1010.7,279.6,0.5,0.9,257.9,0.02,21.3,24.4,"16:43:52",1
"18/09/14","17:00",0.0,22.5,92.5,1010.4,282.2,0.6,1.0,265.6,0.02,21.3,24.6,"16:53:20",1
"18/09/14","17:10",0.0,22.6,93.0,1010.7,294.4,0.5,0.8,328.5,0.00,21.5,24.5,"17:03:28",1
"18/09/14","17:20",0.0,22.5,93.1,1010.2,293.9,0.2,0.6,324.2,0.00,21.4,24.4,"17:10:24",1
"18/09/14","17:30",0.0,22.5,93.1,1010.4,297.1,0.3,0.6,321.5,0.00,21.4,24.3,"17:26:24",1
"18/09/14","17:40",0.0,22.4,93.1,1010.7,290.7,0.0,0.4,299.9,0.00,21.3,24.5,"17:30:08",1
"18/09/14","17:50",0.0,22.3,93.4,1010.7,291.6,0.5,0.8,325.4,0.00,21.2,24.3,"17:46:16",1
"18/09/14","18:00",0.0,22.4,94.1,1010.4,277.1,0.2,0.5,328.0,0.00,21.4,24.1,"17:50:40",1
"18/09/14","18:10",0.0,22.4,94.0,1010.9,276.2,0.2,0.5,282.2,0.00,21.4,24.2,"18:06:40",1
"18/09/14","18:20",0.0,22.1,94.1,1010.4,307.6,0.5,0.9,326.4,0.00,21.1,24.4,"18:14:00",1
"18/09/14","18:30",0.0,22.0,94.3,1010.9,306.9,0.5,0.9,344.0,0.00,21.1,24.3,"18:27:04",1
"18/09/14","18:40",0.0,21.9,94.4,1010.9,323.6,0.7,1.2,349.8,0.00,21.0,24.3,"18:31:20",1
"18/09/14","18:50",0.0,21.8,94.5,1010.4,296.7,0.5,1.2,323.1,0.00,20.9,24.2,"18:47:52",1
"18/09/14","19:00",0.0,21.7,94.7,1010.9,311.3,0.7,1.1,324.2,0.00,20.9,24.2,"18:51:20",1
"18/09/14","19:10",0.0,21.8,94.9,1010.7,306.8,0.6,1.2,332.2,0.00,21.0,24.0,"19:09:04",1
"18/09/14","19:20",0.0,21.7,95.0,1010.9,341.7,0.5,1.0,346.9,0.00,20.9,24.2,"19:12:00",1
"18/09/14","19:30",0.0,21.6,95.0,1010.9,317.6,0.6,1.0,332.1,0.00,20.8,24.1,"19:23:52",1
"18/09/14","19:40",0.2,21.7,95.3,1011.2,330.1,0.8,1.3,338.5,0.00,21.0,23.9,"19:32:00",1
"18/09/14","19:50",0.0,21.6,95.3,1011.4,323.1,0.6,1.0,347.9,0.00,20.9,24.0,"19:45:12",1
"18/09/14","20:00",0.0,21.5,95.4,1011.4,331.0,0.7,1.4,342.4,0.00,20.8,24.0,"19:53:20",1
"18/09/14","20:10",0.2,21.5,95.7,1011.4,308.6,0.3,0.8,331.1,0.00,20.8,23.9,"20:00:08",1
"18/09/14","20:20",0.0,21.4,95.6,1011.4,317.9,0.1,0.5,359.4,0.00,20.7,23.8,"20:10:16",1
"18/09/14","20:30",0.0,21.4,95.8,1011.6,271.2,0.2,0.6,265.4,0.00,20.7,23.9,"20:24:56",1
"18/09/14","20:40",0.2,21.4,95.7,1011.4,284.5,0.3,0.6,268.1,0.00,20.7,23.8,"20:37:20",1
"18/09/14","20:50",0.2,21.4,96.0,1011.4,311.6,0.6,0.9,253.6,0.00,20.8,23.8,"20:43:36",1
"18/09/14","21:00",0.6,21.4,95.9,1011.6,303.9,0.5,0.9,338.5,0.00,20.8,23.7,"20:50:48",1
"18/09/14","21:10",0.4,21.3,96.0,1011.4,310.1,0.2,0.8,329.4,0.00,20.7,23.7,"21:02:00",1
"18/09/14","21:20",0.2,21.4,96.2,1011.4,345.4,0.1,0.5,286.7,0.00,20.8,23.6,"21:10:08",1
"18/09/14","21:30",0.0,21.3,96.1,1011.6,334.8,0.2,0.6,326.9,0.00,20.7,23.7,"21:27:04",1
"18/09/14","21:40",0.2,21.3,96.2,1011.6,332.9,0.3,0.6,342.7,0.00,20.7,23.6,"21:38:16",1
"18/09/14","21:50",0.0,21.3,96.4,1010.7,325.9,0.5,0.9,336.0,0.00,20.7,23.7,"21:45:20",1
"18/09/14","22:00",0.2,21.3,96.3,1010.9,336.5,0.6,1.3,339.3,0.00,20.7,23.9,"21:57:36",1
"18/09/14","22:10",0.0,21.3,96.4,1011.2,336.6,0.6,1.0,339.3,0.00,20.7,23.7,"22:03:12",1
"18/09/14","22:20",0.0,21.2,96.4,1010.9,322.0,1.0,1.3,340.3,0.00,20.6,23.5,"22:11:04",1
"18/09/14","22:30",0.0,21.3,96.5,1011.2,292.6,0.6,1.0,320.0,0.00,20.8,23.7,"22:20:40",1
"18/09/14","22:40",0.0,21.2,96.5,1010.9,289.4,0.2,0.6,294.5,0.00,20.7,23.7,"22:30:48",1
"18/09/14","22:50",0.0,21.2,96.6,1010.7,306.5,0.3,0.9,318.4,0.00,20.7,23.5,"22:46:48",1
"18/09/14","23:00",0.2,21.3,96.7,1010.9,340.3,0.6,1.2,343.6,0.00,20.8,23.5,"22:55:20",1
"18/09/14","23:10",0.6,21.3,96.6,1010.9,336.8,0.5,1.0,340.0,0.00,20.8,23.7,"23:09:20",1
"18/09/14","23:20",0.2,21.2,96.6,1010.9,318.4,0.5,0.9,345.9,0.00,20.7,23.7,"23:12:08",1
"18/09/14","23:30",0.2,21.2,96.8,1010.4,315.9,0.5,1.0,334.3,0.00,20.7,23.6,"23:25:12",1
"18/09/14","23:40",0.2,21.2,96.7,1010.7,300.3,0.2,0.5,312.9,0.00,20.7,23.5,"23:31:44",1
"18/09/14","23:50",0.0,21.2,96.8,1010.7,282.7,0.3,0.6,253.7,0.00,20.7,23.4,"23:44:16",1
"18/09/14","24:00",0.0,21.1,96.8,1010.4,323.6,0.3,0.6,344.1,0.00,20.6,23.4,"23:52:24",1
